FW3646 Weather Reports


time (UTC)temp
C
wind
direction
speed
KPH
gust
KPH
rain 1hr
cm
rain 24hr
cm
rain mn
cm
humidity
%
barometer
mb
20260505124835 28 285 3.2 12.9 0.00 0.00 0.00 34 1006.5
20260505124600 28 186 3.2 12.9 0.00 0.00 0.00 33 1006.5
20260505123837 27 149 1.6 6.4 0.00 0.00 0.00 35 1006.5
20260505123333 27 71 3.2 11.3 0.00 0.00 0.00 35 1006.7
20260505123059 27 348 3.2 11.3 0.00 0.00 0.00 34 1006.7
20260505122556 28 23 3.2 9.7 0.00 0.00 0.00 34 1006.8
20260505121816 28 347 3.2 8.0 0.00 0.00 0.00 36 1007.0
20260505121315 28 73 3.2 8.0 0.00 0.00 0.00 35 1007.0
20260505120809 28 239 3.2 12.9 0.00 0.00 0.00 37 1007.1
20260505120310 28 21 3.2 12.9 0.00 0.00 0.00 36 1007.3
20260505115809 28 10 1.6 8.0 0.00 0.00 0.00 37 1007.3
20260505115308 27 297 1.6 8.0 0.00 0.00 0.00 38 1007.4
20260505115042 27 280 3.2 6.4 0.00 0.00 0.00 40 1007.4
20260505114535 27 359 3.2 12.9 0.00 0.00 0.00 39 1007.5
20260505113805 27 308 1.6 12.9 0.00 0.00 0.00 38 1007.6
20260505113306 27 304 1.6 6.4 0.00 0.00 0.00 40 1007.6
20260505112808 27 4 1.6 8.0 0.00 0.00 0.00 39 1007.8
20260505112307 27 4 1.6 8.0 0.00 0.00 0.00 38 1007.7
20260505111803 27 275 1.6 6.4 0.00 0.00 0.00 40 1007.9
20260505111528 27 291 3.2 9.7 0.00 0.00 0.00 39 1007.9
20260505110745 27 328 4.8 9.7 0.00 0.00 0.00 40 1007.9
20260505110243 27 324 3.2 8.0 0.00 0.00 0.00 41 1008.0
20260505101738 25 270 1.6 4.8 0.00 0.00 0.00 47 1008.5
20260505101235 25 304 1.6 4.8 0.00 0.00 0.00 48 1008.5
20260505100715 25 310 1.6 4.8 0.00 0.00 0.00 48 1008.6
20260505100208 25 293 1.6 8.0 0.00 0.00 0.00 48 1008.6
20260505095708 25 4 3.2 8.0 0.00 0.00 0.00 48 1008.7
20260505095435 24 27 3.2 8.0 0.00 0.00 0.00 48 1008.7
20260505094944 24 315 3.2 8.0 0.00 0.00 0.00 49 1008.8
20260505094204 24 354 3.2 6.4 0.00 0.00 0.00 49 1008.8
20260505093703 25 293 3.2 6.4 0.00 0.00 0.00 48 1008.9
20260505093201 24 122 3.2 6.4 0.00 0.00 0.00 49 1008.9
20260505092701 25 47 3.2 6.4 0.00 0.00 0.00 47 1009.0
20260505092423 25 22 3.2 8.0 0.00 0.00 0.00 47 1009.1
20260505091653 25 14 1.6 8.0 0.00 0.00 0.00 48 1009.1
20260505091153 25 45 1.6 8.0 0.00 0.00 0.00 49 1009.2
20260505090653 25 303 1.6 8.0 0.00 0.00 0.00 49 1009.3
20260505090153 24 232 1.6 6.4 0.00 0.00 0.00 53 1009.4
20260505085653 23 244 1.6 6.4 0.00 0.00 0.00 54 1009.4
20260505085151 23 61 3.2 8.0 0.00 0.00 0.00 52 1009.5
20260505084649 23 18 1.6 8.0 0.00 0.00 0.00 53 1009.5
20260505084147 23 14 0.0 6.4 0.00 0.00 0.00 54 1009.6
20260505083647 23 140 1.6 6.4 0.00 0.00 0.00 56 1009.6
20260505083147 22 161 1.6 6.4 0.00 0.00 0.00 57 1009.6
20260505082643 22 162 1.6 6.4 0.00 0.00 0.00 58 1009.5
20260505082143 21 280 3.2 9.7 0.00 0.00 0.00 58 1009.6
20260505081914 21 37 3.2 9.7 0.00 0.00 0.00 58 1009.6
20260505081409 21 310 1.6 6.4 0.00 0.00 0.00 57 1009.6
20260505080641 21 305 1.6 6.4 0.00 0.00 0.00 58 1009.7
20260505080416 21 344 1.6 6.4 0.00 0.00 0.00 58 1009.8
20260505075637 21 189 1.6 6.4 0.00 0.00 0.00 59 1009.8
20260505075404 20 222 1.6 4.8 0.00 0.00 0.00 61 1009.8
20260505074635 20 120 1.6 4.8 0.00 0.00 0.00 61 1009.8
20260505074138 20 172 1.6 8.0 0.00 0.00 0.00 61 1009.9
20260505073637 20 197 1.6 8.0 0.00 0.00 0.00 62 1009.9
20260505073135 20 308 0.0 4.8 0.00 0.00 0.00 63 1009.9
20260505072636 19 292 1.6 4.8 0.00 0.00 0.00 65 1010.0
20260505072135 19 189 1.6 6.4 0.00 0.00 0.00 66 1010.0
20260505071636 18 188 1.6 6.4 0.00 0.00 0.00 67 1010.0
20260505071404 18 121 0.0 1.6 0.00 0.00 0.00 68 1010.0
20260505070637 17 114 0.0 1.6 0.00 0.00 0.00 70 1010.0
20260505070409 17 79 0.0 3.2 0.00 0.00 0.00 70 1009.6
20260505065637 17 10 0.0 3.2 0.00 0.00 0.00 72 1010.1
20260505065135 16 28 0.0 3.2 0.00 0.00 0.00 73 1010.0
20260505064636 16 36 0.0 3.2 0.00 0.00 0.00 74 1010.1
20260505064135 16 40 0.0 3.2 0.00 0.00 0.00 76 1010.1
20260505063638 15 135 0.0 1.6 0.00 0.00 0.00 76 1010.1
20260505063135 15 143 0.0 3.2 0.00 0.00 0.00 77 1010.1
20260505062638 15 195 0.0 3.2 0.00 0.00 0.00 78 1010.1
20260505062114 15 198 0.0 3.2 0.00 0.00 0.00 79 1010.2
20260505061613 14 311 0.0 3.2 0.00 0.00 0.00 80 1010.2
20260505061113 14 309 0.0 3.2 0.00 0.00 0.00 81 1010.1
20260505060608 13 171 0.0 1.6 0.00 0.00 0.00 82 1010.2
20260505060355 12 172 0.0 1.6 0.00 0.00 0.00 83 1010.3
20260505060116 13 171 0.0 0.0 0.00 0.00 0.00 83 1010.2
20260505055055 12 172 0.0 1.6 0.00 0.00 0.00 83 1010.3
20260505054554 12 171 0.0 0.0 0.00 0.00 0.00 83 1010.5
20260505054039 12 171 0.0 0.0 0.00 0.00 0.00 83 1010.3
20260505053808 12 171 0.0 0.0 0.00 0.00 0.00 83 1010.3
20260505053028 12 171 0.0 0.0 0.00 0.00 0.00 83 1010.3
20260505052752 12 171 0.0 0.0 0.00 0.00 0.00 83 1010.3
20260505052015 12 171 0.0 0.0 0.00 0.00 0.00 83 1010.3
20260505051746 11 171 0.0 0.0 0.00 0.00 0.00 82 1010.2
20260505051013 11 171 0.0 0.0 0.00 0.00 0.00 82 1010.3
20260505050745 11 171 0.0 0.0 0.00 0.00 0.00 81 1010.3
20260505041435 12 171 0.0 1.6 0.00 0.00 0.00 77 1010.5
20260505040936 12 171 0.0 0.0 0.00 0.00 0.00 77 1010.3
20260505040435 12 171 0.0 0.0 0.00 0.00 0.00 77 1010.3
20260505035933 12 171 0.0 0.0 0.00 0.00 0.00 76 1010.3
20260505035425 12 171 0.0 0.0 0.00 0.00 0.00 76 1010.3
20260505034922 12 171 0.0 0.0 0.00 0.00 0.00 75 1010.5
20260505034415 12 171 0.0 0.0 0.00 0.00 0.00 75 1010.5
20260505034143 13 171 0.0 0.0 0.00 0.00 0.00 75 1010.6
20260505033657 13 171 0.0 0.0 0.00 0.00 0.00 74 1010.6
20260505032911 13 171 0.0 0.0 0.00 0.00 0.00 74 1010.6
20260505032339 13 171 0.0 0.0 0.00 0.00 0.00 74 1010.6
20260505031835 13 171 0.0 0.0 0.00 0.00 0.00 74 1010.6
20260505031610 13 171 0.0 0.0 0.00 0.00 0.00 74 1010.7
20260505030838 13 171 0.0 0.0 0.00 0.00 0.00 74 1010.7
20260505030609 13 171 0.0 0.0 0.00 0.00 0.00 74 1010.7
20260505025835 13 171 0.0 0.0 0.00 0.00 0.00 74 1010.7
20260505025610 14 171 0.0 0.0 0.00 0.00 0.00 74 1010.7
20260505024836 14 171 0.0 0.0 0.00 0.00 0.00 74 1010.7
20260505024337 14 171 0.0 0.0 0.00 0.00 0.00 74 1010.8
20260505024059 14 171 0.0 0.0 0.00 0.00 0.00 74 1010.8
20260505023335 14 171 0.0 0.0 0.00 0.00 0.00 75 1010.8
20260505022836 14 171 0.0 0.0 0.00 0.00 0.00 74 1010.8
20260505022336 14 171 0.0 1.6 0.00 0.00 0.00 75 1010.7
20260505021836 14 171 0.0 1.6 0.00 0.00 0.00 75 1010.7
20260505021327 14 171 0.0 1.6 0.00 0.00 0.00 74 1010.7
20260505020826 14 171 0.0 3.2 0.00 0.00 0.00 74 1010.7
20260505020317 15 171 0.0 3.2 0.00 0.00 0.00 74 1010.7
20260505015815 15 171 0.0 3.2 0.00 0.00 0.00 73 1010.8
20260505015307 15 171 0.0 4.8 0.00 0.00 0.00 73 1010.7
20260505014809 15 171 0.0 4.8 0.00 0.00 0.00 72 1010.8
20260505014309 15 171 0.0 1.6 0.00 0.00 0.00 72 1010.8
20260505013810 15 171 0.0 1.6 0.00 0.00 0.00 71 1010.7
20260505013309 15 171 0.0 4.8 0.00 0.00 0.00 71 1010.8
20260505012742 15 171 0.0 4.8 0.00 0.00 0.00 71 1010.8
20260505012239 15 171 1.6 6.4 0.00 0.00 0.00 71 1010.8
20260505011738 15 203 1.6 9.7 0.00 0.00 0.00 71 1010.8
20260505011236 15 199 0.0 9.7 0.00 0.00 0.00 72 1010.9
20260505010735 15 173 0.0 3.2 0.00 0.00 0.00 72 1011.0
20260505010225 15 169 0.0 3.2 0.00 0.00 0.00 72 1011.0
20260505005724 15 195 0.0 3.2 0.00 0.00 0.00 72 1011.1
20260505005455 15 195 0.0 3.2 0.00 0.00 0.00 72 1011.1
20260505004710 15 195 0.0 3.2 0.00 0.00 0.00 72 1011.1
20260505004210 16 195 0.0 3.2 0.00 0.00 0.00 72 1011.2
20260505003943 16 204 0.0 3.2 0.00 0.00 0.00 72 1011.2
20260505003206 16 204 0.0 4.8 0.00 0.00 0.00 72 1011.3
20260505002707 16 204 0.0 4.8 0.00 0.00 0.00 71 1011.4
20260505002206 16 206 0.0 3.2 0.00 0.00 0.00 70 1011.4
20260505001706 16 242 0.0 1.6 0.00 0.00 0.00 69 1011.6
20260505001444 16 316 0.0 0.0 0.00 0.00 0.00 68 1011.6
20260505000710 16 316 0.0 0.0 0.00 0.00 0.00 68 1011.6
20260505000211 16 316 0.0 0.0 0.00 0.00 0.00 68 1011.6
20260504235708 16 316 0.0 0.0 0.00 0.00 0.00 68 1011.5
20260504235440 16 316 0.0 0.0 0.00 0.00 0.00 68 1011.6
20260504234944 16 316 0.0 0.0 0.00 0.00 0.00 68 1011.5
20260504234211 16 316 1.6 6.4 0.00 0.00 0.00 68 1011.5
20260504233711 16 315 1.6 6.4 0.00 0.00 0.00 68 1011.1
20260504233158 16 204 1.6 4.8 0.00 0.00 0.00 68 1011.8
20260504232656 16 16 1.6 8.0 0.00 0.00 0.00 67 1011.4
20260504232427 16 14 1.6 8.0 0.00 0.00 0.00 67 1011.9
20260504231650 16 150 0.0 0.0 0.00 0.00 0.00 65 1011.4
20260504231148 16 150 0.0 0.0 0.00 0.00 0.00 66 1011.4
20260504230648 16 150 0.0 0.0 0.00 0.00 0.00 66 1011.4
20260504230137 16 150 0.0 0.0 0.00 0.00 0.00 66 1010.9
20260504225906 17 150 0.0 0.0 0.00 0.00 0.00 66 1011.4
20260504225136 17 150 0.0 0.0 0.00 0.00 0.00 66 1011.5
20260504224635 17 150 0.0 0.0 0.00 0.00 0.00 65 1011.4
20260504224134 17 150 0.0 1.6 0.00 0.00 0.00 65 1011.5
20260504223636 17 150 0.0 1.6 0.00 0.00 0.00 65 1011.1
20260504223138 17 65 0.0 0.0 0.00 0.00 0.00 63 1011.6
20260504222636 17 65 0.0 0.0 0.00 0.00 0.00 63 1011.5
20260504222136 17 65 0.0 0.0 0.00 0.00 0.00 63 1011.5
20260504221636 17 65 0.0 0.0 0.00 0.00 0.00 61 1011.5
20260504221410 18 65 0.0 0.0 0.00 0.00 0.00 60 1011.5
20260504220635 18 65 0.0 0.0 0.00 0.00 0.00 60 1011.5
20260504220120 18 65 0.0 0.0 0.00 0.00 0.00 60 1011.1
20260504215623 18 65 0.0 0.0 0.00 0.00 0.00 59 1011.5
20260504215613 18 65 0.0 0.0 0.00 0.00 0.00 59 1011.5
20260504214608 18 65 0.0 0.0 0.00 0.00 0.00 58 1011.6
20260504214108 18 65 0.0 0.0 0.00 0.00 0.00 58 1011.6
20260504213609 18 65 0.0 1.6 0.00 0.00 0.00 58 1011.6
20260504213107 18 65 0.0 1.6 0.00 0.00 0.00 58 1011.5
20260504212542 18 65 0.0 0.0 0.00 0.00 0.00 58 1011.6
20260504212035 19 65 0.0 1.6 0.00 0.00 0.00 58 1011.7
20260504211817 19 65 0.0 3.2 0.00 0.00 0.00 57 1011.7
20260504211034 19 57 0.0 3.2 0.00 0.00 0.00 57 1011.8
20260504210822 19 64 0.0 3.2 0.00 0.00 0.00 57 1011.9
20260504210818 19 57 0.0 3.2 0.00 0.00 0.00 56 1011.9
20260504205516 19 87 0.0 1.6 0.00 0.00 0.00 56 1012.0
20260504205249 20 100 0.0 6.4 0.00 0.00 0.00 56 1011.9
20260504204510 20 100 0.0 6.4 0.00 0.00 0.00 56 1011.9
20260504204009 20 87 0.0 3.2 0.00 0.00 0.00 56 1012.0
20260504203445 20 75 0.0 1.6 0.00 0.00 0.00 56 1012.0
20260504202934 20 75 0.0 1.6 0.00 0.00 0.00 55 1011.9
20260504202437 20 75 1.6 4.8 0.00 0.00 0.00 55 1012.0
20260504202145 20 166 1.6 9.7 0.00 0.00 0.00 55 1012.0
20260504201653 20 135 0.0 9.7 0.00 0.00 0.00 55 1012.1
20260504200916 20 129 1.6 8.0 0.00 0.00 0.00 54 1012.2
20260504200417 20 93 1.6 8.0 0.00 0.00 0.00 54 1012.2
20260504195915 20 217 1.6 11.3 0.00 0.00 0.00 55 1012.2
20260504195408 21 189 0.0 11.3 0.00 0.00 0.00 52 1012.2
20260504194909 21 42 0.0 1.6 0.00 0.00 0.00 50 1011.7
20260504194409 21 42 0.0 1.6 0.00 0.00 0.00 50 1011.6
20260504193848 21 42 0.0 1.6 0.00 0.00 0.00 50 1011.5
20260504193337 21 42 1.6 6.4 0.00 0.00 0.00 50 1011.6
20260504192835 21 50 1.6 6.4 0.00 0.00 0.00 50 1011.7
20260504192607 21 354 0.0 4.8 0.00 0.00 0.00 50 1011.5
20260504192110 21 342 0.0 3.2 0.00 0.00 0.00 50 1011.5
20260504191336 21 347 1.6 6.4 0.00 0.00 0.00 50 1011.5
20260504190835 21 312 1.6 6.4 0.00 0.00 0.00 51 1011.6
20260504190826 22 321 1.6 4.8 0.00 0.00 0.00 51 1011.5
20260504185826 22 4 1.6 6.4 0.00 0.00 0.00 51 1011.5
20260504185316 22 12 1.6 6.4 0.00 0.00 0.00 49 1011.4
20260504184817 22 62 0.0 4.8 0.00 0.00 0.00 50 1011.4
20260504184310 22 67 0.0 3.2 0.00 0.00 0.00 49 1011.4
20260504183811 22 233 0.0 3.2 0.00 0.00 0.00 49 1011.4
20260504183310 23 233 0.0 4.8 0.00 0.00 0.00 52 1011.7
20260504182754 23 233 0.0 4.8 0.00 0.00 0.00 50 1011.6
20260504182254 23 86 1.6 6.4 0.00 0.00 0.00 48 1011.4
20260504181740 23 83 4.8 12.9 0.00 0.00 0.00 46 1011.2
20260504181239 23 4 4.8 12.9 0.00 0.00 0.00 44 1011.2
20260504180740 24 359 3.2 12.9 0.00 0.00 0.00 42 1011.2
20260504180239 24 16 1.6 12.9 0.00 0.00 0.00 39 1011.2
20260504175741 25 329 3.2 11.3 0.00 0.00 0.00 38 1011.2
20260504175240 25 346 3.2 11.3 0.00 0.00 0.00 38 1011.3
20260504174740 25 320 1.6 6.4 0.00 0.00 0.00 39 1011.4
20260504174234 25 331 1.6 6.4 0.00 0.00 0.00 38 1011.2
20260504173737 25 316 0.0 6.4 0.00 0.00 0.00 37 1011.1
20260504173236 25 320 0.0 3.2 0.00 0.00 0.00 37 1011.1
20260504172737 25 326 0.0 4.8 0.00 0.00 0.00 37 1011.1
20260504172236 26 296 0.0 4.8 0.00 0.00 0.00 36 1011.0
20260504171735 26 359 1.6 4.8 0.00 0.00 0.00 36 1011.0
20260504171227 26 4 1.6 6.4 0.00 0.00 0.00 36 1011.0
20260504170726 26 12 1.6 6.4 0.00 0.00 0.00 35 1011.7
20260504170217 26 4 1.6 6.4 0.00 0.00 0.00 36 1011.1
20260504160420 26 14 3.2 9.7 0.00 0.00 0.00 34 1011.2
20260504151138 26 77 0.0 4.8 0.00 0.00 0.00 34 1011.4
20260504150911 26 89 1.6 8.0 0.00 0.00 0.00 33 1011.5
20260504150139 26 26 3.2 8.0 0.00 0.00 0.00 33 1011.6